Regional Weather Roundup
Issued by NWS

Home | Current Version | Previous Version | Text Only | Print | Product List | Glossary Off
Versions: 1 2 3 4 5 6 7 8 9 10 11 12 13 14 15 16 17 18 19 20 21 22 23 24 25 26 27 28

000
ASUS45 KPSR 190510
RWRAZ

ARIZONA HOURLY REGIONAL WEATHER ROUNDUP
NATIONAL WEATHER SERVICE PHOENIX AZ
1000 PM MST SAT NOV 18 2017

NOTE: FAIR INDICATES FEW OR NO CLOUDS BELOW 12,000 FEET WITH NO
SIGNIFICANT WEATHER AND/OR OBSTRUCTIONS TO VISIBILITY.

AZZ001>003-036-190600-
NORTHWEST ARIZONA

CITY           SKY/WX    TMP DP  RH WIND       PRES   REMARKS
BULLHEAD CITY  PTCLDY    61  12  15 N20       30.17S
KINGMAN        PTCLDY    37  11  34 E7        30.24R WCI  32
$$

AZZ004>008-015-016-018-190600-
NORTH CENTRAL ARIZONA

CITY           SKY/WX    TMP DP  RH WIND       PRES   REMARKS
GRAND CANYON   PTCLDY    24  -1  33 E7        30.33S WCI  16
WILLIAMS       PTCLDY    32  -6  19 S12       30.30S WCI  23
PRESCOTT       PTCLDY    37   6  27 SW3       30.26R
FLAGSTAFF      PTCLDY    18  -1  43 CALM      30.34R
PAYSON           N/A     41  -2  16 SE6       30.27R
PAGE           PTCLDY    37   9  31 SE3       30.36R
$$

AZZ009>014-017-190600-
NORTHEAST ARIZONA

CITY           SKY/WX    TMP DP  RH WIND       PRES   REMARKS
WINSLOW        MOCLDY    25  -3  29 W5        30.35R WCI  19
SAINT JOHNS    CLEAR     32   7  35 S5        30.31S WCI  27
WINDOW ROCK    CLEAR     20   8  60 S5        30.37R WCI  13
SHOW LOW       HAZE      27   1  33 CALM      30.34R VSB 1/2
$$

AZZ540-542>544-546-548-190600-
GREATER PHOENIX AREA

CITY           SKY/WX    TMP DP  RH WIND       PRES   REMARKS
PHOENIX        CLEAR     63  30  28 SW5       30.07S
BUCKEYE        PTCLDY    57  16  19 NW8       30.10S
LUKE AFB       CLEAR     62  24  23 NW13      30.07S
DEER VALLEY    CLEAR     64  15  15 NE7       30.09R
SCOTTSDALE     CLEAR     58  30  34 CALM      30.10S
MESA-GATEWAY   CLEAR     57  25  28 N6        30.09S
$$

AZZ539-553-190600-
SOUTHWEST MARICOPA COUNTY AND PINAL COUNTY

CITY           SKY/WX    TMP DP  RH WIND       PRES   REMARKS
CASA GRANDE    NOT AVBL
$$

AZZ503-504-507>509-190600-
SOUTHEAST ARIZONA

CITY           SKY/WX    TMP DP  RH WIND       PRES   REMARKS
TUCSON         CLEAR     60  28  29 CALM      30.12S
DAVIS-MONTHAN  PTCLDY    54  25  32 S6        30.11R
NOGALES        CLEAR     56  31  38 SE6       30.14R
SIERRA VISTA   CLEAR     53  26  34 CALM      30.20S
DOUGLAS        CLEAR     57  24  28 VRB3      30.18R
SAFFORD        CLEAR     56  21  25 E8        30.18R
$$

AZZ532-190600-
SOUTHWEST ARIZONA

CITY           SKY/WX    TMP DP  RH WIND       PRES   REMARKS
YUMA           MOCLDY    65  16  15 N8        30.09S
$$

CAZ041-043-047-048-061-525>527-560>570-190600-
SOUTHERN CALIFORNIA

CITY           SKY/WX    TMP DP  RH WIND       PRES   REMARKS
DOWNTOWN L.A.  CLEAR     62  49  62 CALM      30.07R
L.A. AIRPORT   PTCLDY    62  46  55 NE3       30.08R
SAN DIEGO      MOCLDY    63  58  83 NW3       30.10R
BURBANK        CLEAR     64  23  21 CALM      30.09R
ONTARIO        CLEAR     62  35  36 CALM      30.10R
RIVERSIDE      CLEAR     65  19  17 NE7       30.10S
PALM SPRINGS   PTCLDY    68  15  13 W6        30.14S
EL CENTRO NAS  MOCLDY    57  31  37 CALM      30.12S
IMPERIAL       MOCLDY    64  18  17 N3        30.10S
BLYTHE         MOCLDY    57  10  15 N5        30.14R
NEEDLES        PTCLDY    56   8  14 NW5       30.18S
$$

NVZ020-UTZ003-190600-
SOUTHERN NEVADA-UTAH

CITY           SKY/WX    TMP DP  RH WIND       PRES   REMARKS
LAS VEGAS      PTCLDY    50  14  23 CALM      30.23F
SALT LAKE CITY PTCLDY    33  26  75 SW3       30.35F
$$

NMZ009-TXZ055-190600-
NEW MEXICO-WEST TEXAS

CITY           SKY/WX    TMP DP  RH WIND       PRES   REMARKS
ALBUQUERQUE    CLOUDY    39   5  24 N5        30.34F
EL PASO        CLEAR     50  26  39 SE3       30.29S
$$


........................KEY........................
SKY/WX - SKY CONDITION/WEATHER
TMP    - TEMPERATURE IN FAHRENHEIT
DP     - DEW POINT IN FAHRENHEIT
RH     - RELATIVE HUMIDITY IN PERCENT
WIND   - DIRECTION AND SPEED IN MILES PER HOUR (MPH)
VRB    - VARIABLE WIND DIRECTION
PRES   - MEAN SEA LEVEL PRESSURE IN INCHES OF MERCURY
         F - FALLING PRESSURE   R - RISING PRESSURE
         S - STEADY PRESSURE
VSB    - VISIBILITY IN MILES
HX     - HEAT INDEX IN FAHRENHEIT
WCI    - WIND CHILL INDEX IN FAHRENHEIT
TC     - TEMPERATURE IN CELSIUS WHICH IS ALSO KNOWN AS
         TEMPERATURE IN CENTIGRADE
AFB    - AIR FORCE BASE
         LUKE AFB IS LUKE AIR FORCE BASE
         DAVIS-MONTHAN IS DAVIS-MONTHAN AIR FORCE BASE
NAS    - NAVAL AIR STATION
         EL CENTRO NAS IS EL CENTRO NAVAL AIR STATION
N/A    - NOT AVAILABLE





USA.gov is the U.S. government's official web portal to all federal, state and local government web resources and services.